{"data":{"norad_id":43276,"epoch":"2026-09-20T04:46:32.716992Z","epoch_age_seconds":78148,"freshness":"FRESH","line1":"1 43276U 18034B   26263.19898978  .00000024  00000+0  15147-3 0  9992","line2":"2 43276  63.3934 206.7985 0283685   7.6875 352.8363 13.45462940415002","mean_motion":13.4546294,"eccentricity":0.0283685,"inclination_deg":63.3934,"raan_deg":206.7985,"arg_perigee_deg":7.6875,"mean_anomaly_deg":352.8363,"bstar":0.00015147,"rev_number":41500,"period_min":107.02635926932,"perigee_km":877.16677511565,"apogee_km":1300.8296249602,"semimajor_km":7467.1352000379,"source":"CELESTRAK","updated_at":"2026-09-20T09:00:14.318487Z"}}